Weather History for Birchwood, AK

Change the Weather History Date:

Wednesday, November 21, 2012

  Actual Average Record
Temperature  
Mean Temperature 5 °F -  
Max Temperature 10 °F 24 °F 46 °F (2007)
Min Temperature 0 °F 13 °F -11 °F (2013)
Degree Days  
Heating Degree Days 60    
Moisture  
Dew Point 2 °F    
Average Humidity 90    
Maximum Humidity 100    
Minimum Humidity 73    
Precipitation  
Precipitation 0.00 in - - ()
Sea Level Pressure  
Sea Level Pressure 29.73 in    
Wind  
Wind Speed 4 mph (SSE)    
Max Wind Speed 13 mph    
Max Gust Speed -    
Visibility 10 miles    
Events      
Averages and records for this station are not official NWS values.
T = Trace of Precipitation, MM = Missing Value Source: NWS Daily Summary

Daily Weather History Graph

Daily Weather History Graph

Search for Another Location

Airport:

Trip Planner

Search our weather history database for the weather conditions in past years. The results will help you decide how hot, cold, wet, or windy it might be!

Date:

Astronomy

Nov. 21, 2012 Rise Set
Actual Time 9:23 AM AKST 4:04 PM AKST
Civil Twilight 8:28 AM AKST 4:59 PM AKST
Nautical Twilight 7:32 AM AKST 5:55 PM AKST
Astronomical Twilight 6:40 AM AKST 6:47 PM AKST
Moon 2:02 PM AKST (11/21) 1:05 AM AKST (11/21)
Length of Visible Light 8h 30m
Length of Day
6h 41m
Waxing Gibbous, 63% of the Moon is Illuminated
Nov 21
Waxing Gibbous
Nov 28
Full
Dec 6
Last Quarter
Dec 12
New
Dec 19
First Quarter

Hourly Weather History & Observations

Time (AKST) Temp. Windchill Dew Point Humidity Pressure Visibility Wind Dir Wind Speed Gust Speed Precip Events Conditions
12:16 AM 3.2 °F -4.2 °F 1.4 °F 92% 29.69 in 10.0 mi East 3.5 mph - N/A   Clear
12:36 AM 3.2 °F - 1.4 °F 92% 29.69 in 10.0 mi Calm Calm - N/A   Clear
12:56 AM 3.2 °F -6.2 °F 1.4 °F 92% 29.69 in 10.0 mi SSE 4.6 mph - N/A   Clear
1:16 AM 5.0 °F -2.1 °F 3.2 °F 92% 29.68 in 10.0 mi SE 3.5 mph - N/A   Clear
1:36 AM 5.0 °F -2.1 °F 3.2 °F 92% 29.69 in 10.0 mi SSE 3.5 mph - N/A   Clear
1:56 AM 5.0 °F -2.1 °F 3.2 °F 92% 29.68 in 10.0 mi SSE 3.5 mph - N/A   Clear
2:16 AM 3.2 °F -4.2 °F 1.4 °F 92% 29.69 in 10.0 mi South 3.5 mph - N/A   Clear
2:36 AM 3.2 °F -10.3 °F 1.4 °F 92% 29.69 in 10.0 mi South 8.1 mph - N/A   Clear
2:56 AM 6.8 °F -9.3 °F 3.2 °F 85% 29.69 in 10.0 mi South 12.7 mph - N/A   Clear
3:16 AM 5.0 °F -10.8 °F 3.2 °F 92% 29.68 in 10.0 mi South 11.5 mph - N/A   Clear
3:36 AM 6.8 °F -4.8 °F 3.2 °F 85% 29.68 in 10.0 mi South 6.9 mph - N/A   Clear
3:56 AM 6.8 °F -3.5 °F 3.2 °F 85% 29.68 in 10.0 mi South 5.8 mph - N/A   Clear
4:16 AM 6.8 °F -3.5 °F 3.2 °F 85% 29.68 in 10.0 mi South 5.8 mph - N/A   Clear
4:36 AM 6.8 °F -0.1 °F 3.2 °F 85% 29.68 in 10.0 mi SSW 3.5 mph - N/A   Clear
4:56 AM 3.2 °F -12.2 °F 1.4 °F 92% 29.68 in 10.0 mi South 10.4 mph - N/A   Clear
5:16 AM 3.2 °F -4.2 °F 1.4 °F 92% 29.69 in 10.0 mi South 3.5 mph - N/A   Clear
5:36 AM 3.2 °F -9.1 °F 1.4 °F 92% 29.68 in 10.0 mi South 6.9 mph - N/A   Clear
5:56 AM 3.2 °F -13.1 °F 1.4 °F 92% 29.68 in 10.0 mi South 11.5 mph - N/A   Clear
6:16 AM 3.2 °F -12.2 °F 1.4 °F 92% 29.68 in 10.0 mi South 10.4 mph - N/A   Clear
6:36 AM 3.2 °F -4.2 °F 1.4 °F 92% 29.68 in 10.0 mi SE 3.5 mph - N/A   Clear
6:56 AM 3.2 °F -6.2 °F 1.4 °F 92% 29.68 in 10.0 mi ENE 4.6 mph - N/A   Clear
7:16 AM 6.8 °F - 1.4 °F 79% 29.68 in 10.0 mi Calm Calm - N/A   Clear
7:36 AM 3.2 °F -4.2 °F -0.4 °F 85% 29.68 in 10.0 mi SSE 3.5 mph - N/A   Clear
7:56 AM 1.4 °F -6.2 °F -0.4 °F 92% 29.69 in 10.0 mi South 3.5 mph - N/A   Clear
8:16 AM 1.4 °F -6.2 °F -0.4 °F 92% 29.69 in 10.0 mi SSE 3.5 mph - N/A   Clear
8:36 AM 3.2 °F -6.2 °F 1.4 °F 92% 29.69 in 10.0 mi SSE 4.6 mph - N/A   Clear
8:56 AM 1.4 °F -6.2 °F -0.4 °F 92% 29.70 in 10.0 mi South 3.5 mph - N/A   Clear
9:16 AM 1.4 °F - -0.4 °F 92% 29.70 in 10.0 mi Calm Calm - N/A   Clear
9:36 AM -0.4 °F -8.3 °F -0.4 °F 100% 29.70 in 9.0 mi East 3.5 mph - N/A   Clear
9:56 AM 1.4 °F - -0.4 °F 92% 29.71 in 10.0 mi Calm Calm - N/A   Clear
10:16 AM -0.4 °F - -0.4 °F 100% 29.71 in 10.0 mi Calm Calm - N/A   Clear
10:36 AM 1.4 °F -6.2 °F -0.4 °F 92% 29.72 in 10.0 mi East 3.5 mph - N/A   Clear
10:56 AM 3.2 °F -4.2 °F 1.4 °F 92% 29.72 in 10.0 mi ESE 3.5 mph - N/A   Clear
11:16 AM 1.4 °F -8.3 °F -0.4 °F 92% 29.72 in 9.0 mi NE 4.6 mph - N/A   Clear
11:36 AM 3.2 °F - 1.4 °F 92% 29.72 in 10.0 mi Calm Calm - N/A   Clear
11:56 AM 5.0 °F -2.1 °F 3.2 °F 92% 29.72 in 10.0 mi SSE 3.5 mph - N/A   Clear
12:16 PM 6.8 °F -2.0 °F 3.2 °F 85% 29.72 in 10.0 mi South 4.6 mph - N/A   Clear
12:36 PM 8.6 °F - 3.2 °F 79% 29.72 in 10.0 mi Calm Calm - N/A   Clear
12:56 PM 8.6 °F - 3.2 °F 79% 29.72 in 10.0 mi Calm Calm - N/A   Clear
1:16 PM 10.4 °F - 3.2 °F 73% 29.72 in 9.0 mi Calm Calm - N/A   Clear
1:36 PM 10.4 °F 4.0 °F 5.0 °F 79% 29.73 in 8.0 mi South 3.5 mph - N/A   Clear
1:56 PM 10.4 °F - 5.0 °F 79% 29.73 in 10.0 mi Calm Calm - N/A   Clear
2:16 PM 10.4 °F - 5.0 °F 79% 29.72 in 10.0 mi Calm Calm - N/A   Clear
2:36 PM 10.4 °F - 5.0 °F 79% 29.72 in 10.0 mi Calm Calm - N/A   Clear
2:56 PM 10.4 °F - 5.0 °F 79% 29.72 in 10.0 mi Calm Calm - N/A   Clear
3:16 PM 8.6 °F - 3.2 °F 79% 29.72 in 10.0 mi Calm Calm - N/A   Clear
3:36 PM 8.6 °F - 5.0 °F 85% 29.73 in 10.0 mi Calm Calm - N/A   Clear
3:56 PM 8.6 °F - 3.2 °F 79% 29.73 in 10.0 mi Calm Calm - N/A   Clear
4:16 PM 6.8 °F - 3.2 °F 85% 29.74 in 10.0 mi Calm Calm - N/A   Clear
4:36 PM 6.8 °F -2.0 °F 3.2 °F 85% 29.74 in 10.0 mi SE 4.6 mph - N/A   Clear
4:56 PM 3.2 °F -4.2 °F 1.4 °F 92% 29.74 in 10.0 mi East 3.5 mph - N/A   Clear
5:16 PM 3.2 °F -6.2 °F 1.4 °F 92% 29.74 in 10.0 mi East 4.6 mph - N/A   Clear
5:36 PM 1.4 °F -6.2 °F 1.4 °F 100% 29.75 in 10.0 mi SE 3.5 mph - N/A   Clear
5:56 PM 1.4 °F -8.3 °F 1.4 °F 100% 29.75 in 10.0 mi SE 4.6 mph - N/A   Clear
6:16 PM 1.4 °F - 1.4 °F 100% 29.75 in 10.0 mi Calm Calm - N/A   Clear
6:36 PM 1.4 °F -6.2 °F -0.4 °F 92% 29.76 in 10.0 mi SE 3.5 mph - N/A   Clear
6:56 PM 1.4 °F -6.2 °F 1.4 °F 100% 29.76 in 10.0 mi SE 3.5 mph - N/A   Clear
7:16 PM 1.4 °F -6.2 °F -0.4 °F 92% 29.77 in 10.0 mi ESE 3.5 mph - N/A   Clear
7:36 PM 1.4 °F -6.2 °F -0.4 °F 92% 29.78 in 10.0 mi SE 3.5 mph - N/A   Clear
7:56 PM 1.4 °F -6.2 °F -0.4 °F 92% 29.78 in 10.0 mi ESE 3.5 mph - N/A   Clear
8:16 PM 1.4 °F - -0.4 °F 92% 29.78 in 10.0 mi Calm Calm - N/A   Clear
8:36 PM 1.4 °F - 1.4 °F 100% 29.79 in 10.0 mi Calm Calm - N/A   Clear
8:56 PM 1.4 °F - -0.4 °F 92% 29.79 in 10.0 mi Calm Calm - N/A   Clear
9:16 PM 1.4 °F - -0.4 °F 92% 29.79 in 10.0 mi Calm Calm - N/A   Clear
9:36 PM 1.4 °F - -0.4 °F 92% 29.80 in 10.0 mi Calm Calm - N/A   Clear
9:56 PM 1.4 °F - 1.4 °F 100% 29.81 in 10.0 mi Calm Calm - N/A   Clear
10:16 PM 1.4 °F - -0.4 °F 92% 29.81 in 10.0 mi Calm Calm - N/A   Clear
10:36 PM 1.4 °F -6.2 °F -0.4 °F 92% 29.82 in 10.0 mi SSE 3.5 mph - N/A   Clear
10:56 PM 1.4 °F - -0.4 °F 92% 29.83 in 10.0 mi Calm Calm - N/A   Partly Cloudy
11:16 PM 1.4 °F - -0.4 °F 92% 29.83 in 10.0 mi Calm Calm - N/A   Partly Cloudy
11:36 PM 1.4 °F -8.3 °F -0.4 °F 92% 29.84 in 10.0 mi SE 4.6 mph - N/A   Partly Cloudy
11:56 PM 5.0 °F -2.1 °F 3.2 °F 92% 29.84 in 10.0 mi SSE 3.5 mph - N/A   Clear